ND5T-1 Weather Reports


time (UTC)temp
C
wind
direction
speed
KPH
gust
KPH
rain 1hr
cm
rain 24hr
cm
rain mn
cm
humidity
%
barometer
mb
20210723162329 29 0.0 0.0 0.00 0.48 0.00 34 1021.6
20210723161330 28 0.0 0.0 0.00 0.48 0.00 40 1021.6
20210723160328 28 0.0 0.0 0.00 0.48 0.00 12 1021.7
20210723155319 28 0.0 0.0 0.00 0.48 0.00 9 1021.7
20210723154320 28 0.0 0.0 0.00 0.48 0.00 11 1021.7
20210723153322 28 0.0 0.0 0.00 0.48 0.00 1 1021.8
20210723152324 28 0.0 0.0 0.00 0.48 0.00 1 1021.7
20210723151327 28 0.0 0.0 0.00 0.48 0.00 1 1021.7
20210723150327 28 0.0 0.0 0.00 0.48 0.00 1 1021.7
20210723145319 28 0.0 0.0 0.00 0.48 0.00 1 1021.8
20210723144320 27 0.0 0.0 0.00 0.48 0.00 1 1021.8
20210723143321 27 0.0 0.0 0.00 0.48 0.00 1 1021.8
20210723142323 27 0.0 0.0 0.00 0.48 0.00 1 1021.8
20210723141326 27 0.0 0.0 0.00 0.48 0.00 1 1021.9
20210723140328 27 0.0 0.0 0.00 0.48 0.00 1 1021.9
20210723135317 26 0.0 0.0 0.00 0.48 0.00 1 1021.8
20210723134319 26 0.0 0.0 0.00 0.48 0.00 1 1021.8
20210723133319 26 0.0 0.0 0.00 0.48 0.00 1 1021.7
20210723132321 25 0.0 0.0 0.00 0.48 0.00 1 1021.7
20210723131320 25 0.0 0.0 0.00 0.48 0.00 1 1021.7
20210723130321 25 0.0 0.0 0.00 0.48 0.00 1 1021.6
20210723125334 24 0.0 0.0 0.00 0.48 0.00 1 1021.4
20210723124334 24 0.0 0.0 0.00 0.48 0.00 1 1021.4
20210723123317 24 0.0 0.0 0.00 0.48 0.00 1 1021.4
20210723122319 24 0.0 0.0 0.00 0.48 0.00 1 1021.3
20210723121319 24 0.0 0.0 0.00 0.48 0.00 1 1021.3
20210723120319 24 0.0 0.0 0.00 0.48 0.00 1 1021.2
20210723115327 24 0.0 0.0 0.00 0.48 0.00 1 1021.1
20210723114330 24 0.0 0.0 0.00 0.48 0.00 1 1021.0
20210723113332 24 0.0 0.0 0.00 0.48 0.00 1 1021.0
20210723112334 24 0.0 0.0 0.00 0.48 0.00 1 1020.8
20210723111317 24 0.0 0.0 0.00 0.48 0.00 1 1020.8
20210723110322 24 0.0 0.0 0.00 0.48 0.00 1 1020.8
20210723105336 24 0.0 0.0 0.00 0.48 0.00 1 1020.7
20210723104320 24 0.0 0.0 0.00 0.48 0.00 1 1020.8
20210723103323 24 0.0 0.0 0.00 0.48 0.00 1 1020.7
20210723102328 24 0.0 0.0 0.00 0.48 0.00 1 1020.7
20210723101332 24 0.0 0.0 0.00 0.48 0.00 1 1020.7
20210723100317 24 0.0 0.0 0.00 0.48 0.00 1 1020.6
20210723095332 24 0.0 0.0 0.00 0.48 0.00 1 1020.6
20210723094318 24 0.0 0.0 0.00 0.48 0.00 1 1020.6
20210723093320 24 0.0 0.0 0.00 0.48 0.00 1 1020.6
20210723092319 25 0.0 0.0 0.00 0.48 0.00 1 1020.5
20210723091324 25 0.0 0.0 0.00 0.48 0.00 1 1020.5
20210723090329 25 0.0 0.0 0.00 0.48 0.00 1 1020.5
20210723085326 25 0.0 0.0 0.00 0.48 0.00 1 1020.5
20210723084329 25 0.0 0.0 0.00 0.48 0.00 1 1020.5
20210723083334 24 0.0 0.0 0.00 0.48 0.00 1 1020.6
20210723082318 24 0.0 0.0 0.00 0.48 0.00 1 1020.5
20210723081321 24 0.0 0.0 0.00 0.48 0.00 1 1020.5
20210723080325 25 0.0 0.0 0.00 0.48 0.00 1 1020.4
20210723075321 25 0.0 0.0 0.00 0.48 0.00 1 1020.4
20210723074325 25 0.0 0.0 0.00 0.48 0.00 1 1020.4
20210723073330 25 0.0 0.0 0.00 0.48 0.00 1 1020.4
20210723072334 25 0.0 0.0 0.00 0.48 0.00 1 1020.4
20210723071319 25 0.0 0.0 0.00 0.48 0.00 1 1020.4
20210723070324 25 0.0 0.0 0.00 0.48 0.00 1 1020.3
20210723065335 25 0.0 0.0 0.00 0.48 0.00 1 1020.3
20210723064320 25 0.0 0.0 0.00 0.48 0.00 1 1020.4
20210723063324 25 0.0 0.0 0.00 0.48 0.00 1 1020.5
20210723062328 25 0.0 0.0 0.00 0.48 0.00 1 1020.5
20210723061332 25 0.0 0.0 0.00 0.48 0.00 1 1020.5
20210723060317 25 0.0 0.0 0.00 0.48 0.00 1 1020.5
20210723055332 25 0.0 0.0 0.00 0.48 0.00 1 1020.5
20210723054317 25 0.0 0.0 0.00 0.48 0.00 1 1020.4
20210723053322 25 0.0 0.0 0.00 0.48 0.00 1 1020.4
20210723052326 25 0.0 0.0 0.00 0.48 0.48 1 1020.5
20210723051331 25 0.0 0.0 0.00 0.48 0.48 1 1020.5
20210723050337 25 0.0 0.0 0.00 0.48 0.48 1 1020.4
20210723045332 25 0.0 0.0 0.00 0.48 0.48 1 1020.3
20210723044326 25 0.0 0.0 0.00 0.48 0.48 1 1020.4
20210723043327 25 0.0 0.0 0.00 0.48 0.48 1 1020.3
20210723042331 25 0.0 0.0 0.00 0.48 0.48 1 1020.3
20210723041336 25 0.0 0.0 0.00 0.48 0.48 1 1020.3
20210723040322 25 0.0 0.0 0.00 0.48 0.48 1 1020.3
20210723035318 26 0.0 0.0 0.00 0.48 0.48 1 1020.2
20210723034323 26 0.0 0.0 0.00 0.48 0.48 1 1020.2
20210723033328 26 0.0 0.0 0.00 0.48 0.48 1 1020.2
20210723032333 26 0.0 0.0 0.00 0.48 0.48 1 1020.1
20210723031317 26 0.0 0.0 0.00 0.48 0.48 1 1020.2
20210723030323 26 0.0 0.0 0.00 0.48 0.48 1 1020.2
20210723025319 26 0.0 0.0 0.00 0.48 0.48 1 1020.2
20210723024324 26 0.0 0.0 0.00 0.48 0.48 1 1020.3
20210723023329 26 0.0 0.0 0.00 0.48 0.48 1 1020.3
20210723022333 26 0.0 0.0 0.00 0.48 0.48 1 1020.3
20210723021317 26 0.0 0.0 0.00 0.48 0.48 1 1020.2
20210723020322 26 0.0 0.0 0.00 0.48 0.48 1 1020.3
20210723015335 26 0.0 0.0 0.00 0.48 0.48 1 1020.2
20210723014318 26 0.0 0.0 0.00 0.48 0.48 1 1020.2
20210723013323 26 0.0 0.0 0.00 0.48 0.48 1 1020.2
20210723012327 26 0.0 0.0 0.00 0.48 0.48 1 1020.1
20210723011331 26 0.0 0.0 0.00 0.48 0.48 1 1019.9
20210723010334 26 0.0 0.0 0.00 0.48 0.48 1 1019.8
20210723005329 26 0.0 0.0 0.00 0.48 0.48 1 1019.7
20210723004333 26 0.0 0.0 0.00 0.48 0.48 1 1019.5
20210723003318 26 0.0 0.0 0.00 0.48 0.48 1 1019.5
20210723002322 26 0.0 0.0 0.00 0.48 0.48 1 1019.5
20210723001323 26 0.0 0.0 0.00 0.48 0.48 1 1019.5
20210723000331 26 0.0 0.0 0.00 0.48 0.48 1 1019.4
20210722235323 26 0.0 0.0 0.00 0.48 0.48 1 1019.3
20210722234326 26 0.0 0.0 0.00 0.48 0.48 1 1019.3
20210722233325 26 0.0 0.0 0.00 0.48 0.48 1 1019.2
20210722232330 26 0.0 0.0 0.00 0.48 0.48 1 1019.2
20210722231334 26 0.0 0.0 0.00 0.48 0.48 1 1019.3
20210722230336 25 0.0 0.0 0.00 0.48 0.48 1 1019.2
20210722225329 25 0.0 0.0 0.00 0.48 0.48 1 1019.2
20210722224332 25 0.0 0.0 0.00 0.48 0.48 1 1019.4
20210722223334 25 0.0 0.0 0.00 0.48 0.48 1 1019.5
20210722222317 25 0.0 0.0 0.03 0.48 0.48 1 1019.5
20210722221320 25 0.0 0.0 0.48 0.48 0.48 1 1019.7
20210722220325 25 0.0 0.0 0.48 0.48 0.48 1 1019.5
20210722215319 25 0.0 0.0 0.48 0.48 0.48 1 1019.9
20210722214324 25 0.0 0.0 0.48 0.48 0.48 5 1019.5
20210722213328 26 0.0 0.0 0.48 0.48 0.48 31 1019.7
20210722212331 27 0.0 0.0 0.46 0.46 0.46 47 1020.0
20210722211320 30 0.0 0.0 0.00 0.00 0.00 66 1020.2
20210722210325 31 0.0 0.0 0.00 0.00 0.00 69 1019.6
20210722205322 31 0.0 0.0 0.00 0.00 0.00 68 1019.6
20210722204326 32 0.0 0.0 0.00 0.00 0.00 68 1019.6
20210722203329 32 0.0 0.0 0.00 0.00 0.00 65 1019.6
20210722202335 32 0.0 0.0 0.00 0.00 0.00 66 1019.8
20210722201320 32 0.0 0.0 0.00 0.00 0.00 67 1019.9
20210722200323 32 0.0 0.0 0.00 0.00 0.00 66 1019.8
20210722195319 32 0.0 0.0 0.00 0.00 0.00 68 1019.8
20210722194324 32 0.0 0.0 0.00 0.00 0.00 64 1019.9
20210722193329 32 0.0 0.0 0.00 0.00 0.00 64 1020.0
20210722192332 32 0.0 0.0 0.00 0.00 0.00 67 1020.1
20210722191317 32 0.0 0.0 0.00 0.00 0.00 68 1020.3
20210722190317 32 0.0 0.0 0.00 0.00 0.00 67 1020.4
20210722185329 32 0.0 0.0 0.00 0.00 0.00 66 1020.5
20210722184334 32 0.0 0.0 0.00 0.00 0.00 65 1020.7
20210722183320 32 0.0 0.0 0.00 0.00 0.00 68 1020.8
20210722182325 31 0.0 0.0 0.00 0.00 0.00 68 1020.7
20210722181329 31 0.0 0.0 0.00 0.00 0.00 67 1020.9
20210722180334 30 0.0 0.0 0.00 0.00 0.00 64 1021.0
20210722175330 30 0.0 0.0 0.00 0.00 0.00 65 1021.1
20210722174335 30 0.0 0.0 0.00 0.00 0.00 64 1021.2
20210722173318 30 0.0 0.0 0.00 0.00 0.00 64 1021.3
20210722172323 30 0.0 0.0 0.00 0.00 0.00 64 1021.4
20210722171327 30 0.0 0.0 0.00 0.00 0.00 61 1021.3
20210722170331 30 0.0 0.0 0.00 0.00 0.00 60 1021.3
20210722165326 30 0.0 0.0 0.00 0.00 0.00 63 1021.3
20210722164331 30 0.0 0.0 0.00 0.00 0.00 58 1021.3
20210722163335 29 0.0 0.0 0.00 0.00 0.00 56 1021.3